Temperature
18 18 18 18 19 18 19 19 19 18 18 18 17 17 17 16 16 16 15 15 15 15 14 14 14 14 13 13 13 13 13 14 14 14 14 15 15 15 16 16 16 16 16
18 18 18 18 18 19 19 19 19 18 18 18 17 17 16 16 16 15 15 15 15 14 14 14 13 13 13 13 13 13 13 13 13 13 14 14 15 15 15 15 16 16 16
18 18 18 18 19 19 19 19 19 18 18 17 17 17 16 16 15 15 15 15 14 14 14 14 13 13 13 13 13 12 13 13 13 13 13 13 13 14 15 15 15 15 15
19 19 19 19 19 19 19 19 18 18 18 17 17 17 16 16 15 15 15 14 14 14 13 13 13 13 13 13 12 12 12 12 12 12 12 12 12 13 13 15 15 15 15
19 19 19 20 20 19 19 19 18 18 18 17 17 16 16 15 15 15 14 14 14 14 13 13 13 13 13 12 12 12 12 12 12 12 12 12 12 12 12 13 14 14 14
20 20 20 20 20 19 19 19 19 18 18 17 17 16 16 15 15 15 14 14 14 14 13 13 13 13 13 12 12 12 12 12 11 11 12 12 12 12 12 12 12 13 14
21 20 20 20 20 20 19 19 19 19 18 17 17 16 16 15 15 15 14 14 14 13 13 13 13 13 12 12 12 12 12 11 11 11 11 11 11 11 11 11 12 12 13
21 21 21 21 21 20 20 19 19 19 18 17 17 16 16 16 15 15 14 14 13 13 13 13 12 12 12 12 12 12 12 11 11 11 11 11 11 11 11 11 11 11 12
22 22 22 21 21 21 20 20 19 19 18 17 17 16 16 16 15 15 14 14 14 13 13 12 12 12 12 12 12 11 11 11 11 11 11 11 11 11 11 11 11 10 10
22 22 22 22 21 21 21 20 20 19 18 18 17 17 16 16 15 15 15 14 14 13 13 13 12 12 12 12 11 11 11 11 11 11 11 11 11 11 10 10 10 10 10
23 23 23 22 22 21 21 20 20 19 18 18 17 17 17 16 16 15 15 14 14 13 13 13 12 12 12 12 11 11 11 11 11 11 11 11 11 10 10 10 10 10 10
24 23 23 22 22 21 21 20 20 19 19 18 18 17 17 16 16 16 15 14 14 13 13 13 12 12 12 11 11 11 11 11 11 11 11 11 10 10 10 10 10 10 10
24 23 23 22 22 22 21 21 20 20 19 19 18 18 17 17 16 16 15 14 14 14 13 13 12 12 12 11 11 11 11 11 11 11 10 10 10 10 10 10 10 10 10
24 24 23 23 22 22 21 21 20 20 19 19 18 18 17 17 16 16 15 15 14 14 13 13 13 12 12 12 11 11 11 11 11 10 10 10 10 10 10 10 10 10 10
24 24 23 23 22 22 21 21 21 20 20 19 19 18 17 17 16 16 15 15 14 14 14 13 13 12 12 12 11 11 11 11 10 10 10 10 10 10 10 10 10 9 9
24 24 24 23 23 22 22 21 21 20 20 19 19 18 18 17 17 16 16 15 15 14 14 13 13 13 12 12 11 11 11 11 10 10 10 10 10 10 10 9 9 9 9
24 24 24 24 23 23 22 22 21 20 20 19 19 18 18 17 17 16 16 15 15 15 14 14 13 13 13 12 12 11 11 11 11 10 10 10 10 10 10 9 9 9 9
24 24 24 24 23 23 22 22 21 21 20 20 19 18 18 18 17 16 16 16 15 15 15 14 14 13 13 12 12 11 11 11 11 10 10 10 10 10 9 9 9 9 9
24 24 24 24 23 23 22 22 21 21 20 20 19 19 18 18 17 17 16 16 16 15 15 14 14 14 13 13 12 11 11 11 11 11 10 10 10 10 9 9 9 9 9
23 24 24 23 23 23 22 22 21 21 20 20 20 19 18 18 17 17 17 16 16 15 15 15 14 14 13 13 12 12 11 11 11 11 11 10 10 10 9 9 9 9 9
23 23 23 23 22 22 22 21 21 21 21 20 19 19 18 18 17 17 16 16 16 15 15 15 14 14 13 13 13 12 12 11 11 11 11 10 10 10 9 9 9 9 9
21 22 22 22 22 21 21 21 21 21 20 19 19 18 18 17 17 16 16 16 15 15 15 14 14 14 14 13 13 12 12 11 11 11 11 10 10 9 9 9 9 8 8
20 20 20 20 20 20 20 20 20 19 19 18 18 17 17 17 16 16 15 15 15 14 14 14 14 14 14 13 13 12 12 12 11 11 11 10 10 9 9 9 9 8 8
18 18 19 18 18 18 18 18 18 18 17 17 17 16 16 16 15 15 15 15 14 14 14 14 14 14 14 13 13 12 12 12 11 11 10 10 10 9 9 9 9 8 8
17 17 17 17 17 17 17 17 16 16 16 16 15 15 15 15 14 14 14 14 14 14 13 13 13 13 13 13 13 12 12 12 11 11 10 10 10 9 9 9 9 8 8
15 15 15 15 15 15 15 15 15 14 14 14 14 14 13 13 13 13 13 13 13 13 13 13 13 13 13 13 13 12 12 11 11 10 10 10 10 9 9 9 9 9 8
Wind_Speed
7 8 10 10 9 8 9 9 8 6 6 4 4 4 2 2 2 3 6 7 6 7 6 4 4 4 4 4 4 3 4 4 4 4 5 5 4 3 3 3 2 3 6
9 10 10 9 9 9 9 8 8 7 6 4 4 3 3 2 2 2 4 6 6 7 6 4 3 3 4 5 5 4 3 3 4 3 3 5 6 5 4 4 3 3 2
13 12 12 10 10 9 10 10 8 8 7 6 4 4 4 3 3 2 1 2 5 6 6 5 4 3 3 3 3 3 3 3 3 3 2 2 3 4 4 4 5 5 3
12 12 12 12 12 11 9 9 9 8 7 6 6 5 4 3 2 2 2 2 3 4 5 5 5 3 2 2 1 2 2 2 2 3 2 1 3 1 4 5 5 6 5
14 15 15 15 13 11 10 9 9 8 7 7 7 7 5 4 2 2 2 0 1 1 5 6 5 3 2 1 1 2 2 1 0 1 2 2 2 1 1 4 5 5 4
14 14 13 12 11 10 10 9 10 8 7 8 8 8 7 6 4 2 1 1 1 1 3 6 4 3 2 2 1 0 0 0 1 1 1 1 0 1 0 2 4 5 5
13 13 13 12 12 12 12 11 11 9 8 8 8 8 8 7 5 3 2 1 0 1 2 3 3 2 3 3 2 1 1 1 2 2 2 2 3 3 2 2 3 3 4
14 15 15 14 13 14 13 12 12 10 9 9 8 8 8 5 4 5 4 4 3 3 3 3 3 3 3 3 2 2 3 2 3 3 3 3 3 3 3 3 2 3 3
15 15 14 14 14 14 14 14 13 11 10 10 9 8 8 7 6 5 4 3 3 3 4 3 3 3 3 3 3 3 4 3 4 4 4 3 4 3 3 3 3 3 3
14 14 14 15 14 13 12 12 13 12 10 10 9 8 8 7 7 5 5 5 4 3 3 3 3 4 4 4 4 4 5 5 5 4 5 4 4 4 4 3 3 4 4
16 15 14 13 13 12 12 12 11 10 10 10 8 9 8 7 7 6 6 5 4 5 5 4 4 5 5 5 5 6 6 6 6 5 5 6 5 4 4 4 3 3 4
15 14 14 13 12 13 13 13 12 11 11 10 9 9 8 7 7 7 6 6 6 6 6 5 5 5 6 5 5 6 6 6 7 7 6 7 5 5 5 4 5 5 5
12 12 13 14 14 14 14 13 13 12 11 10 10 9 8 8 8 8 7 7 7 6 6 5 6 6 6 6 6 6 7 7 7 7 7 7 6 7 5 6 6 5 5
13 13 13 13 14 14 14 14 12 12 11 10 10 10 10 9 9 8 8 8 7 7 7 6 7 7 7 6 6 6 6 6 6 6 7 7 7 8 8 6 7 6 6
13 15 15 13 13 12 12 12 12 11 11 11 11 11 10 9 8 8 8 8 7 8 7 7 6 6 6 6 6 6 6 6 6 6 6 7 9 11 9 7 7 7 6
15 15 15 15 15 15 14 13 12 12 11 12 12 10 9 9 9 9 8 8 8 8 7 7 7 7 6 8 10 8 6 6 7 7 7 7 9 11 12 12 11 10 8
12 15 16 17 17 16 16 16 14 11 11 12 11 10 10 10 10 9 8 8 8 8 7 8 7 8 9 12 13 13 8 7 7 8 7 7 8 9 7 9 11 11 13
10 12 12 13 13 13 13 13 12 12 12 12 11 11 10 10 9 9 9 9 7 7 7 8 8 8 10 13 14 14 9 8 9 9 9 8 9 10 9 9 8 9 9
8 9 11 11 11 12 12 11 11 11 11 12 12 11 11 10 10 10 10 8 7 7 7 6 8 8 10 13 14 13 6 7 9 9 9 9 9 13 13 9 9 9 9
3 4 5 6 7 10 10 11 11 11 13 13 12 11 11 11 11 11 10 8 7 8 8 8 8 9 10 13 15 14 6 7 8 8 8 12 12 12 12 7 8 9 9
3 1 2 4 6 6 9 10 10 13 13 10 9 9 10 10 10 10 8 8 8 8 8 9 9 9 11 13 16 15 8 9 8 7 7 8 12 13 12 9 8 11 10
8 6 3 1 1 2 7 8 9 9 7 7 8 9 9 8 8 8 8 7 8 8 9 8 9 8 9 11 13 16 16 13 9 9 8 8 12 13 12 9 11 14 11
10 8 6 6 6 4 1 3 4 2 4 6 7 7 7 7 6 7 8 7 7 7 8 8 9 9 7 9 15 16 16 17 11 9 11 11 12 11 10 13 16 12 7
9 9 9 9 7 6 5 3 3 2 1 2 3 3 4 5 5 5 6 6 7 8 9 9 10 9 7 7 7 7 8 10 10 8 9 11 12 11 12 11 10 8 8
8 9 9 8 8 8 8 7 5 5 3 2 2 3 3 5 5 5 6 8 9 10 11 10 10 9 10 12 14 10 8 7 7 5 3 3 4 5 6 7 8 7 7
8 9 10 9 9 8 8 8 6 5 4 4 4 4 4 4 5 6 8 12 14 17 18 19 16 12 15 15 15 17 14 12 10 6 4 6 7 8 8 8 8 7 8
Wind_Direction
188 163 155 153 147 146 142 141 140 143 131 117 113 113 121 128 143 158 149 141 126 105 98 84 62 52 47 29 17 16 11 359 359 11 340 327 327 330 318 311 285 252 239
170 167 166 164 162 160 156 152 152 152 144 139 143 147 141 133 143 148 146 153 141 131 126 114 97 69 51 32 28 34 25 357 19 35 17 349 342 340 345 352 9 347 310
175 174 169 170 169 168 170 167 165 158 153 145 121 91 73 62 65 98 153 185 167 157 145 136 121 94 77 49 36 49 62 14 354 36 83 55 319 315 327 353 8 0 352
178 178 176 180 182 181 178 171 168 163 158 143 132 130 130 132 161 173 192 221 197 186 168 149 134 115 96 70 38 72 72 68 7 354 29 171 200 275 321 327 345 349 350
182 183 184 187 188 182 179 174 165 165 162 150 142 132 133 150 155 130 140 264 306 236 173 151 142 131 120 113 76 56 52 82 103 331 336 351 10 88 161 309 326 333 331
187 188 188 183 183 181 177 171 166 169 165 155 148 147 152 157 150 144 140 335 347 30 143 148 152 158 161 172 184 198 349 307 267 256 230 189 288 309 298 277 306 313 310
188 188 188 185 185 182 180 175 170 172 169 159 157 159 161 162 165 177 171 158 127 127 168 159 171 184 200 207 203 213 257 259 259 256 247 227 222 215 204 228 278 296 301
192 193 193 189 187 185 182 176 175 174 170 164 167 167 163 155 158 163 164 171 182 188 182 179 190 206 220 226 209 220 245 236 243 255 251 250 252 227 208 208 234 302 309
195 195 193 190 188 185 183 179 175 173 172 171 170 171 169 166 172 177 173 175 180 181 171 179 197 224 232 235 229 236 248 251 250 251 249 245 254 250 236 215 193 201 273
197 195 192 190 187 183 180 174 172 172 173 172 174 177 179 180 181 179 183 189 199 192 188 209 225 240 246 245 235 240 246 247 254 246 249 252 252 257 253 238 218 194 205
197 193 189 184 178 172 170 170 170 167 170 172 173 169 178 182 180 185 197 199 202 201 207 223 234 241 246 247 236 239 243 243 253 255 247 252 253 253 257 251 242 230 204
194 187 181 174 169 170 172 173 173 172 176 174 172 176 180 180 182 193 202 201 204 210 214 220 227 237 240 239 234 243 243 237 243 249 247 252 255 252 250 245 246 245 229
184 175 173 173 174 174 175 176 176 179 179 174 174 179 185 188 196 204 208 206 207 214 220 220 227 236 239 238 239 239 243 240 239 239 239 247 247 252 250 245 245 246 251
176 172 174 177 178 177 177 178 181 182 179 176 177 186 195 198 202 205 206 208 208 213 222 226 230 233 236 238 243 242 241 243 246 243 240 243 240 242 246 247 243 242 247
174 175 177 180 179 179 182 182 184 185 181 178 185 196 201 200 200 203 207 210 212 217 219 223 231 233 233 234 230 229 231 234 246 251 249 250 251 248 244 244 237 234 235
180 180 179 179 182 185 186 186 188 187 180 183 193 196 194 197 201 206 209 212 219 222 219 221 226 233 237 233 222 216 224 228 235 249 257 262 265 265 264 261 252 231 226
184 184 185 186 188 189 187 188 191 183 182 189 192 191 193 199 206 208 208 214 218 218 221 225 226 232 241 244 239 235 223 227 235 240 250 264 266 267 263 268 270 261 246
187 190 193 195 195 191 188 188 182 181 187 191 194 194 195 203 207 207 213 216 213 214 220 226 229 235 245 245 243 241 230 230 238 238 239 247 261 267 258 259 262 257 256
188 192 195 194 193 193 191 181 185 187 191 197 200 200 198 202 206 212 218 215 212 218 222 224 227 235 249 249 244 239 224 233 244 244 242 242 252 262 265 256 254 260 264
209 192 185 180 193 201 182 178 189 192 202 205 205 202 200 204 209 214 215 212 211 221 225 233 232 234 244 248 244 234 216 232 246 250 247 246 248 257 266 244 238 251 259
24 69 138 173 207 193 172 187 195 207 212 204 200 203 205 210 213 214 214 213 216 224 230 240 243 239 243 252 250 236 211 224 237 244 248 246 246 252 256 242 229 243 252
29 34 53 20 323 159 167 186 209 220 204 192 200 210 214 216 216 215 222 219 218 228 237 244 255 252 248 247 251 242 226 220 223 236 241 242 246 250 252 247 245 253 260
30 29 41 34 26 29 129 203 240 215 192 202 215 221 220 219 215 212 222 226 224 231 242 242 251 257 251 248 246 246 239 227 223 236 238 241 248 253 256 254 255 257 250
30 31 42 40 28 22 32 23 16 52 138 212 234 238 234 239 235 228 226 230 236 239 245 246 250 253 251 246 242 237 236 231 228 239 248 253 257 255 252 258 261 248 236
34 39 42 38 27 27 29 25 36 54 46 7 328 304 280 265 261 256 247 245 244 242 241 246 244 243 248 243 223 213 215 208 209 199 230 247 256 258 257 257 256 250 242
40 42 42 39 30 31 30 23 28 46 45 12 343 319 301 290 282 279 281 265 257 259 251 247 245 244 241 242 229 222 216 200 178 168 223 243 247 252 257 259 260 252 245
Height
1532 1535 1537 1540 1542 1544 1546 1547 1549 1551 1552 1553 1553 1554 1554 1554 1554 1553 1553 1552 1551 1550 1549 1548 1547 1546 1545 1544 1544 1544 1543 1543 1542 1542 1542 1541 1541 1541 1541 1541 1542 1543 1545
1531 1534 1536 1538 1540 1543 1545 1546 1548 1550 1551 1552 1553 1553 1553 1553 1553 1552 1551 1551 1550 1549 1548 1547 1546 1545 1544 1544 1543 1543 1542 1542 1542 1541 1540 1540 1541 1540 1540 1540 1540 1541 1542
1528 1531 1534 1537 1539 1541 1543 1545 1547 1549 1550 1550 1551 1552 1552 1551 1551 1551 1550 1550 1549 1548 1548 1547 1546 1545 1544 1543 1543 1542 1542 1541 1541 1541 1541 1541 1540 1539 1539 1539 1539 1539 1539
1527 1529 1532 1535 1537 1539 1541 1544 1546 1547 1548 1549 1549 1550 1550 1550 1549 1549 1549 1548 1548 1547 1547 1546 1545 1544 1544 1543 1542 1541 1541 1540 1540 1540 1541 1541 1540 1540 1538 1538 1538 1538 1538
1524 1527 1529 1532 1535 1537 1540 1542 1544 1545 1546 1547 1547 1547 1547 1548 1547 1547 1547 1547 1546 1546 1545 1545 1544 1544 1543 1542 1541 1540 1539 1539 1539 1539 1539 1539 1539 1539 1538 1536 1536 1536 1536
1522 1525 1528 1531 1534 1536 1538 1540 1541 1543 1544 1545 1545 1545 1545 1545 1545 1545 1545 1544 1544 1544 1544 1543 1543 1542 1542 1541 1540 1539 1538 1538 1537 1537 1537 1537 1537 1537 1536 1535 1534 1533 1533
1519 1523 1526 1528 1531 1533 1535 1537 1539 1540 1542 1543 1543 1543 1543 1542 1542 1542 1542 1542 1542 1542 1542 1542 1542 1541 1540 1539 1538 1538 1537 1536 1535 1535 1535 1535 1535 1534 1534 1533 1532 1531 1530
1516 1519 1522 1525 1527 1530 1532 1534 1536 1538 1539 1540 1540 1541 1540 1540 1540 1540 1540 1540 1540 1540 1540 1540 1539 1539 1538 1537 1536 1536 1535 1534 1533 1533 1533 1532 1532 1532 1532 1531 1530 1528 1527
1512 1515 1518 1521 1524 1526 1528 1531 1533 1535 1537 1537 1538 1538 1538 1538 1538 1538 1538 1538 1538 1538 1538 1538 1537 1536 1536 1535 1534 1533 1532 1532 1531 1530 1530 1529 1529 1529 1528 1528 1528 1527 1524
1509 1512 1515 1518 1520 1523 1526 1529 1531 1532 1534 1534 1535 1535 1535 1535 1535 1535 1535 1535 1536 1536 1535 1535 1534 1534 1533 1532 1531 1530 1529 1529 1528 1527 1527 1526 1526 1525 1525 1524 1524 1524 1523
1504 1508 1511 1514 1517 1520 1523 1525 1528 1529 1531 1531 1532 1532 1533 1533 1533 1533 1533 1533 1533 1533 1532 1532 1531 1531 1530 1529 1528 1527 1526 1525 1525 1524 1523 1523 1522 1521 1521 1520 1520 1519 1519
1500 1503 1507 1511 1514 1517 1520 1522 1524 1526 1527 1528 1529 1529 1530 1530 1530 1530 1530 1530 1530 1530 1529 1529 1528 1527 1526 1525 1524 1523 1522 1522 1521 1520 1519 1519 1518 1517 1516 1516 1515 1515 1514
1497 1500 1504 1507 1510 1513 1516 1518 1521 1522 1524 1525 1526 1526 1527 1527 1527 1527 1527 1527 1527 1527 1526 1525 1525 1524 1523 1522 1521 1520 1519 1518 1517 1516 1515 1514 1514 1512 1512 1511 1510 1510 1509
1492 1496 1500 1503 1506 1509 1512 1514 1517 1519 1520 1521 1522 1523 1523 1524 1524 1524 1524 1524 1524 1523 1523 1522 1521 1520 1519 1518 1517 1516 1515 1514 1513 1512 1511 1510 1509 1508 1507 1506 1505 1505 1504
1489 1492 1496 1499 1503 1506 1508 1511 1513 1515 1516 1517 1518 1519 1520 1520 1521 1521 1521 1521 1520 1520 1519 1518 1517 1516 1515 1514 1512 1511 1510 1509 1508 1507 1506 1504 1503 1502 1501 1501 1500 1500 1499
1486 1489 1493 1496 1498 1501 1504 1506 1509 1510 1512 1513 1514 1515 1516 1516 1517 1517 1517 1517 1516 1516 1515 1514 1513 1512 1510 1509 1508 1507 1506 1505 1503 1502 1501 1499 1498 1496 1496 1495 1495 1494 1493
1483 1486 1489 1491 1494 1497 1499 1502 1504 1506 1507 1508 1510 1511 1512 1512 1513 1513 1513 1512 1512 1512 1511 1509 1508 1507 1506 1505 1503 1502 1501 1500 1499 1497 1496 1494 1492 1491 1490 1489 1489 1488 1488
1482 1484 1486 1488 1491 1493 1495 1498 1500 1501 1502 1504 1505 1506 1507 1507 1508 1508 1508 1508 1507 1507 1506 1505 1503 1502 1501 1500 1498 1497 1496 1495 1494 1492 1490 1489 1487 1486 1485 1484 1483 1482 1482
1481 1482 1483 1485 1487 1489 1491 1493 1495 1496 1498 1499 1500 1501 1502 1503 1503 1503 1503 1503 1503 1502 1501 1500 1498 1497 1496 1495 1494 1492 1491 1489 1488 1487 1485 1484 1482 1481 1480 1479 1477 1476 1475
1480 1480 1481 1482 1484 1486 1488 1489 1490 1491 1492 1493 1495 1496 1497 1497 1497 1498 1498 1498 1498 1497 1496 1495 1493 1492 1490 1490 1488 1487 1485 1484 1482 1481 1480 1479 1477 1476 1475 1473 1472 1470 1469
1479 1479 1479 1480 1481 1482 1483 1484 1485 1486 1487 1489 1490 1491 1491 1492 1492 1493 1493 1492 1492 1491 1490 1489 1487 1486 1485 1484 1483 1481 1479 1478 1476 1475 1474 1473 1472 1470 1469 1467 1466 1464 1463
1478 1478 1479 1479 1479 1479 1480 1480 1481 1482 1484 1485 1485 1486 1486 1487 1487 1487 1487 1487 1486 1485 1483 1482 1481 1480 1479 1477 1476 1475 1473 1472 1470 1469 1468 1467 1465 1464 1462 1461 1459 1458 1456
1479 1479 1478 1478 1478 1478 1478 1478 1478 1479 1480 1481 1481 1482 1482 1482 1482 1482 1481 1480 1479 1478 1476 1475 1473 1472 1472 1470 1469 1468 1467 1465 1463 1462 1461 1460 1458 1457 1455 1453 1452 1450 1448
1481 1480 1478 1477 1477 1477 1477 1476 1477 1477 1477 1477 1477 1477 1477 1477 1476 1475 1474 1474 1472 1471 1469 1468 1466 1464 1464 1463 1462 1461 1459 1458 1457 1455 1454 1453 1451 1449 1447 1446 1444 1442 1440
1482 1481 1479 1478 1477 1476 1476 1475 1475 1474 1474 1474 1474 1473 1472 1471 1470 1469 1468 1466 1465 1464 1462 1460 1458 1456 1455 1454 1454 1453 1452 1450 1450 1448 1447 1445 1444 1442 1440 1438 1436 1434 1433
1484 1482 1481 1479 1478 1477 1475 1474 1473 1473 1472 1471 1470 1469 1468 1466 1464 1463 1461 1459 1457 1455 1453 1452 1450 1447 1446 1445 1445 1445 1444 1443 1442 1441 1439 1438 1436 1434 1432 1430 1428 1427 1425